TimePST,TemperatureF,Dew PointF,Humidity,Sea Level PressureIn,VisibilityMPH,Wind Direction,Wind SpeedMPH,Gust SpeedMPH,PrecipitationIn,Events,Conditions,WindDirDegrees,DateUTC
12:04 AM,48.2,46.4,93,30.32,10.0,Calm,Calm,-,N/A,,Mostly Cloudy,0,2013-03-02 08:04:00
12:53 AM,48.9,46.0,90,30.32,10.0,Calm,Calm,-,N/A,,Overcast,0,2013-03-02 08:53:00
1:53 AM,48.9,46.9,93,30.30,10.0,Calm,Calm,-,N/A,,Overcast,0,2013-03-02 09:53:00
3:02 AM,50.0,46.4,87,30.27,10.0,Calm,Calm,-,N/A,,Overcast,0,2013-03-02 11:02:00
3:53 AM,50.0,46.9,89,30.26,10.0,Calm,Calm,-,N/A,,Overcast,0,2013-03-02 11:53:00
4:53 AM,50.0,46.9,89,30.25,10.0,Calm,Calm,-,N/A,,Overcast,0,2013-03-02 12:53:00
5:53 AM,50.0,46.9,89,30.25,10.0,Calm,Calm,-,N/A,,Overcast,0,2013-03-02 13:53:00
6:53 AM,50.0,46.9,89,30.23,10.0,Calm,Calm,-,N/A,,Overcast,0,2013-03-02 14:53:00
7:53 AM,50.0,46.9,89,30.24,10.0,North,4.6,-,N/A,,Overcast,350,2013-03-02 15:53:00
8:53 AM,51.1,46.9,86,30.24,10.0,Calm,Calm,-,N/A,,Overcast,0,2013-03-02 16:53:00
9:53 AM,52.0,48.0,86,30.25,10.0,Calm,Calm,-,N/A,,Overcast,0,2013-03-02 17:53:00
10:53 AM,53.1,48.0,83,30.25,10.0,Calm,Calm,-,N/A,,Overcast,0,2013-03-02 18:53:00
11:30 AM,53.6,48.2,82,30.25,10.0,Calm,Calm,-,N/A,,Overcast,0,2013-03-02 19:30:00
11:53 AM,55.0,48.9,80,30.24,10.0,East,3.5,-,N/A,,Mostly Cloudy,90,2013-03-02 19:53:00
12:10 PM,55.4,48.2,77,30.23,10.0,Calm,Calm,-,N/A,,Scattered Clouds,0,2013-03-02 20:10:00
12:53 PM,55.9,48.0,75,30.23,10.0,Calm,Calm,-,N/A,,Overcast,0,2013-03-02 20:53:00
1:02 PM,55.4,48.2,77,30.23,10.0,Calm,Calm,-,N/A,,Overcast,0,2013-03-02 21:02:00
1:53 PM,57.0,48.0,72,30.22,10.0,North,3.5,-,N/A,,Mostly Cloudy,350,2013-03-02 21:53:00
2:53 PM,57.0,46.9,69,30.23,10.0,NNW,6.9,-,N/A,,Overcast,340,2013-03-02 22:53:00
3:06 PM,55.4,46.4,72,30.22,10.0,NW,4.6,-,N/A,,Overcast,320,2013-03-02 23:06:00
3:27 PM,55.4,46.4,72,30.22,10.0,NNW,4.6,-,N/A,,Overcast,330,2013-03-02 23:27:00
3:53 PM,55.9,44.1,64,30.22,10.0,NW,8.1,-,N/A,,Overcast,320,2013-03-02 23:53:00
4:18 PM,55.4,44.6,67,30.22,10.0,Variable,5.8,-,N/A,,Overcast,0,2013-03-03 00:18:00
4:53 PM,55.0,45.0,69,30.22,10.0,North,5.8,-,N/A,,Overcast,10,2013-03-03 00:53:00
5:06 PM,53.6,44.6,72,30.21,10.0,North,4.6,-,N/A,,Overcast,350,2013-03-03 01:06:00
5:14 PM,53.6,44.6,72,30.22,10.0,North,3.5,-,N/A,,Overcast,350,2013-03-03 01:14:00
5:53 PM,52.0,46.9,83,30.23,8.0,NNW,4.6,-,0.00,Rain,Light Rain,340,2013-03-03 01:53:00
6:53 PM,51.1,48.0,89,30.22,8.0,Calm,Calm,-,0.02,Rain,Light Rain,0,2013-03-03 02:53:00
7:44 PM,50.0,48.2,94,30.21,10.0,Calm,Calm,-,0.01,,Overcast,0,2013-03-03 03:44:00
7:53 PM,50.0,48.0,93,30.22,10.0,Calm,Calm,-,0.01,,Overcast,0,2013-03-03 03:53:00
8:53 PM,50.0,48.0,93,30.22,10.0,Calm,Calm,-,N/A,,Overcast,0,2013-03-03 04:53:00
9:15 PM,50.0,48.2,94,30.22,9.0,Calm,Calm,-,N/A,,Overcast,0,2013-03-03 05:15:00
9:53 PM,50.0,48.0,93,30.23,9.0,Calm,Calm,-,N/A,,Overcast,0,2013-03-03 05:53:00
10:53 PM,50.0,46.9,89,30.22,10.0,Calm,Calm,-,0.00,,Overcast,0,2013-03-03 06:53:00
11:29 PM,50.0,48.2,94,30.22,10.0,Calm,Calm,-,N/A,,Overcast,0,2013-03-03 07:29:00
11:53 PM,48.9,46.9,93,30.23,10.0,Calm,Calm,-,N/A,,Overcast,0,2013-03-03 07:53:00